sat.trackr.live / text

‹ back to catalog

STARLINK-5256

NORAD 54175 · 2022-141U

PAYLOAD ACTIVE UNKNOWN

§ Identity

Operator
Country
US
Launch date
2022-10-28
Launch site
AFWTR
Launch vehicle
Mass (kg)
RCS (m²)

Purposes: comms

External: N2YO · Heavens-Above · Gunter

§ Orbital elements

Epoch: 2026-05-25T00:56:39.586848Z

Period
95.44 min
Inclination
53.2138°
Eccentricity
0.0001221
Mean motion
15.08846088 rev/d
Perigee alt
538.9 km
Apogee alt
540.6 km
Semi-major
6,917.9 km
B*
-2.5857e-5
RAAN
21.3839°
Arg perigee
98.9019°
Mean anomaly
261.2112°
Rev number
19,738

§ Raw data

STARLINK-52561 54175U 22141U   26145.03934707 -.00000699  00000+0 -25857-4 0  99992 54175  53.2138  21.3839 0001221  98.9019 261.2112 15.08846088197385

JSON: /api/v1/satellites/54175 · /tle

For live sub-satellite position, see the globe view (requires WebGL).

§ Visibility from observer

Set your observer location to see the next 7 days of passes ≥ 10°. The values pass through the URL so the page stays shareable.

No JS? Fill the form by hand. The geolocation button needs JavaScript.